Location: Frizzleburg
(41.0764°N, 80.4548°W)
Time: 09:22:09
(UTC+00:00)

NOSS 3-3 (A) - Pass Details

Date: 17 November 2019
Orbit: 848 x 1364 km, 63.4° (Epoch: 05 December)

Event Time Altitude Azimuth Distance (km) Brightness Sun altitude
Exits shadow 10:14:18 43° 259° (W) 1,285 4.2 -22.0°
Maximum altitude 10:16:00 56° 310° (NW) 1,111 4.0 -21.7°
Drops below altitude 10° 10:22:28 10° 29° (NNE) 2,839 6.7 -20.5°
Sets 10:25:20 0° 33° (NNE) 3,877 7.5 -20.0°
